User: anonymous   Login
Location: Newark
(41.9364°N, 2.8061°E)
Time: 19:29:46
(UTC+00:00)
Language:

A-11 Canister half - Orbit

View from above orbital plane
View from above orbital plane
View from above satellite
View from above satellite

Ground track
Ground track

The orbit data is extracted from the following two-line orbital elements,

1    51U 60009C   20059.14598704 -.00000032  00000-0  50954-3 0  9997
2    51  47.2146 328.6826 0103999 195.5778 164.1799 12.18270573650633
Epoch (UTC): 28 February 2020 03:30:13
Eccentricity: 0.0103999
inclination: 47.2146°
perigee height: 1517 km
apogee height: 1683 km
right ascension of ascending node: 328.6826°
argument of perigee: 195.5778°
revolutions per day: 12.18270573
mean anomaly at epoch: 164.1799°
orbit number at epoch: 65063

The dashed part of the orbit path shows where the satellite is in the earth's shadow,  

DLR